Year,Month,Day,Hour,Minute,Value (Times are PST for temperature in C)
2017,02,15,00,00,5.00
2017,02,15,00,01,5.10
2017,02,15,00,02,5.20
2017,02,15,00,03,5.20
2017,02,15,00,04,5.20
2017,02,15,00,05,5.30
2017,02,15,00,06,5.30
2017,02,15,00,07,5.50
2017,02,15,00,08,5.60
2017,02,15,00,09,5.70
2017,02,15,00,10,5.80
2017,02,15,00,11,5.90
2017,02,15,00,12,6.00
2017,02,15,00,13,6.10
2017,02,15,00,14,6.10
2017,02,15,00,15,6.20
2017,02,15,00,16,6.30
2017,02,15,00,17,6.40
2017,02,15,00,18,6.50
2017,02,15,00,19,6.60
2017,02,15,00,20,6.80
2017,02,15,00,21,6.90
2017,02,15,00,22,7.00
2017,02,15,00,23,7.00
2017,02,15,00,24,7.10
2017,02,15,00,25,7.20
2017,02,15,00,26,7.30
2017,02,15,00,27,7.30
2017,02,15,00,28,7.40
2017,02,15,00,29,7.40
2017,02,15,00,30,7.40
2017,02,15,00,31,7.40
2017,02,15,00,32,7.50
2017,02,15,00,33,7.50
2017,02,15,00,34,7.50
2017,02,15,00,35,7.60
2017,02,15,00,36,7.60
2017,02,15,00,37,7.60
2017,02,15,00,38,7.60
2017,02,15,00,39,7.60
2017,02,15,00,40,7.60
2017,02,15,00,41,7.60
2017,02,15,00,42,7.60
2017,02,15,00,43,7.70
2017,02,15,00,44,7.70
2017,02,15,00,45,7.70
2017,02,15,00,46,7.70
2017,02,15,00,47,7.70
2017,02,15,00,48,7.70
2017,02,15,00,49,7.70
2017,02,15,00,50,7.70
2017,02,15,00,51,7.80
2017,02,15,00,52,7.80
2017,02,15,00,53,7.90
2017,02,15,00,54,7.90
2017,02,15,00,55,8.00
2017,02,15,00,56,8.00
2017,02,15,00,57,8.10
2017,02,15,00,58,8.10
2017,02,15,00,59,8.10
2017,02,15,01,00,8.10
2017,02,15,01,01,8.20
2017,02,15,01,02,8.20
2017,02,15,01,03,8.20
2017,02,15,01,04,8.20
2017,02,15,01,05,8.30
2017,02,15,01,06,8.30
2017,02,15,01,07,8.30
2017,02,15,01,08,8.30
2017,02,15,01,09,8.30
2017,02,15,01,10,8.30
2017,02,15,01,11,8.30
2017,02,15,01,12,8.30
2017,02,15,01,13,8.30
2017,02,15,01,14,8.30
2017,02,15,01,15,8.30
2017,02,15,01,16,8.30
2017,02,15,01,17,8.30
2017,02,15,01,18,8.30
2017,02,15,01,19,8.30
2017,02,15,01,20,8.30
2017,02,15,01,21,8.30
2017,02,15,01,22,8.40
2017,02,15,01,23,8.40
2017,02,15,01,24,8.40
2017,02,15,01,25,8.40
2017,02,15,01,26,8.40
2017,02,15,01,27,8.40
2017,02,15,01,28,8.40
2017,02,15,01,29,8.40
2017,02,15,01,30,8.40
2017,02,15,01,31,8.40
2017,02,15,01,32,8.40
2017,02,15,01,33,8.40
2017,02,15,01,34,8.40
2017,02,15,01,35,8.40
2017,02,15,01,36,8.40
2017,02,15,01,37,8.40
2017,02,15,01,38,8.40
2017,02,15,01,39,8.40
2017,02,15,01,40,8.40
2017,02,15,01,41,8.40
2017,02,15,01,42,8.40
2017,02,15,01,43,8.40
2017,02,15,01,44,8.40
2017,02,15,01,45,8.40
2017,02,15,01,46,8.40
2017,02,15,01,47,8.40
2017,02,15,01,48,8.40
2017,02,15,01,49,8.40
2017,02,15,01,50,8.50
2017,02,15,01,51,8.50
2017,02,15,01,52,8.50
2017,02,15,01,53,8.60
2017,02,15,01,54,8.60
2017,02,15,01,55,8.60
2017,02,15,01,56,8.60
2017,02,15,01,57,8.60
2017,02,15,01,58,8.60
2017,02,15,01,59,8.60
2017,02,15,02,00,8.60
2017,02,15,02,01,8.60
2017,02,15,02,02,8.60
2017,02,15,02,03,8.50
2017,02,15,02,04,8.50
2017,02,15,02,05,8.50
2017,02,15,02,06,8.50
2017,02,15,02,07,8.50
2017,02,15,02,08,8.50
2017,02,15,02,09,8.50
2017,02,15,02,10,8.50
2017,02,15,02,11,8.50
2017,02,15,02,12,8.50
2017,02,15,02,13,8.50
2017,02,15,02,14,8.50
2017,02,15,02,15,8.50
2017,02,15,02,16,8.50
2017,02,15,02,17,8.50
2017,02,15,02,18,8.60
2017,02,15,02,19,8.60
2017,02,15,02,20,8.60
2017,02,15,02,21,8.60
2017,02,15,02,22,8.60
2017,02,15,02,23,8.60
2017,02,15,02,24,8.60
2017,02,15,02,25,8.50
2017,02,15,02,26,8.50
2017,02,15,02,27,8.50
2017,02,15,02,28,8.50
2017,02,15,02,29,8.50
2017,02,15,02,30,8.50
2017,02,15,02,31,8.50
2017,02,15,02,32,8.50
2017,02,15,02,33,8.50
2017,02,15,02,34,8.50
2017,02,15,02,35,8.50
2017,02,15,02,36,8.40
2017,02,15,02,37,8.40
2017,02,15,02,38,8.40
2017,02,15,02,39,8.40
2017,02,15,02,40,8.40
2017,02,15,02,41,8.40
2017,02,15,02,42,8.40
2017,02,15,02,43,8.40
2017,02,15,02,44,8.40
2017,02,15,02,45,8.40
2017,02,15,02,46,8.40
2017,02,15,02,47,8.50
2017,02,15,02,48,8.40
2017,02,15,02,49,8.40
2017,02,15,02,50,8.40
2017,02,15,02,51,8.40
2017,02,15,02,52,8.40
2017,02,15,02,53,8.40
2017,02,15,02,54,8.40
2017,02,15,02,55,8.40
2017,02,15,02,56,8.40
2017,02,15,02,57,8.40
2017,02,15,02,58,8.40
2017,02,15,02,59,8.40
2017,02,15,03,00,8.40
2017,02,15,03,01,8.40
2017,02,15,03,02,8.40
2017,02,15,03,03,8.40
2017,02,15,03,04,8.40
2017,02,15,03,05,8.40
2017,02,15,03,06,8.30
2017,02,15,03,07,8.30
2017,02,15,03,08,8.30
2017,02,15,03,09,8.30
2017,02,15,03,10,8.30
2017,02,15,03,11,8.30
2017,02,15,03,12,8.30
2017,02,15,03,13,8.30
2017,02,15,03,14,8.30
2017,02,15,03,15,8.30
2017,02,15,03,16,8.30
2017,02,15,03,17,8.30
2017,02,15,03,18,8.30
2017,02,15,03,19,8.30
2017,02,15,03,20,8.30
2017,02,15,03,21,8.30
2017,02,15,03,22,8.30
2017,02,15,03,23,8.30
2017,02,15,03,24,8.30
2017,02,15,03,25,8.30
2017,02,15,03,26,8.30
2017,02,15,03,27,8.30
2017,02,15,03,28,8.30
2017,02,15,03,29,8.30
2017,02,15,03,30,8.40
2017,02,15,03,31,8.40
2017,02,15,03,32,8.40
2017,02,15,03,33,8.40
2017,02,15,03,34,8.40
2017,02,15,03,35,8.40
2017,02,15,03,36,8.40
2017,02,15,03,37,8.40
2017,02,15,03,38,8.40
2017,02,15,03,39,8.40
2017,02,15,03,40,8.40
2017,02,15,03,41,8.40
2017,02,15,03,42,8.40
2017,02,15,03,43,8.40
2017,02,15,03,44,8.40
2017,02,15,03,45,8.40
2017,02,15,03,46,8.40
2017,02,15,03,47,8.40
2017,02,15,03,48,8.40
2017,02,15,03,49,8.40
2017,02,15,03,50,8.40
2017,02,15,03,51,8.40
2017,02,15,03,52,8.40
2017,02,15,03,53,8.40
2017,02,15,03,54,8.40
2017,02,15,03,55,8.40
2017,02,15,03,56,8.40
2017,02,15,03,57,8.40
2017,02,15,03,58,8.40
2017,02,15,03,59,8.40
2017,02,15,04,00,8.40
2017,02,15,04,01,8.40
2017,02,15,04,02,8.40
2017,02,15,04,03,8.40
2017,02,15,04,04,8.40
2017,02,15,04,05,8.40
2017,02,15,04,06,8.50
2017,02,15,04,07,8.50
2017,02,15,04,08,8.50
2017,02,15,04,09,8.50
2017,02,15,04,10,8.50
2017,02,15,04,11,8.50
2017,02,15,04,12,8.50
2017,02,15,04,13,8.50
2017,02,15,04,14,8.50
2017,02,15,04,15,8.50
2017,02,15,04,16,8.50
2017,02,15,04,17,8.50
2017,02,15,04,18,8.50
2017,02,15,04,19,8.50
2017,02,15,04,20,8.50
2017,02,15,04,21,8.50
2017,02,15,04,22,8.50
2017,02,15,04,23,8.60
2017,02,15,04,24,8.60
2017,02,15,04,25,8.60
2017,02,15,04,26,8.60
2017,02,15,04,27,8.60
2017,02,15,04,28,8.60
2017,02,15,04,29,8.60
2017,02,15,04,30,8.70
2017,02,15,04,31,8.70
2017,02,15,04,32,8.70
2017,02,15,04,33,8.70
2017,02,15,04,34,8.70
2017,02,15,04,35,8.70
2017,02,15,04,36,8.70
2017,02,15,04,37,8.70
2017,02,15,04,38,8.70
2017,02,15,04,39,8.70
2017,02,15,04,40,8.70
2017,02,15,04,41,8.70
2017,02,15,04,42,8.70
2017,02,15,04,43,8.80
2017,02,15,04,44,8.80
2017,02,15,04,45,8.80
2017,02,15,04,46,8.80
2017,02,15,04,47,8.80
2017,02,15,04,48,8.80
2017,02,15,04,49,8.80
2017,02,15,04,50,8.80
2017,02,15,04,51,8.80
2017,02,15,04,52,8.80
2017,02,15,04,53,8.80
2017,02,15,04,54,8.80
2017,02,15,04,55,8.80
2017,02,15,04,56,8.80
2017,02,15,04,57,8.80
2017,02,15,04,58,8.80
2017,02,15,04,59,8.80
2017,02,15,05,00,8.80
2017,02,15,05,01,8.80
2017,02,15,05,02,8.80
2017,02,15,05,03,8.80
2017,02,15,05,04,8.90
2017,02,15,05,05,8.90
2017,02,15,05,06,8.90
2017,02,15,05,07,8.90
2017,02,15,05,08,9.00
2017,02,15,05,09,9.00
2017,02,15,05,10,9.10
2017,02,15,05,11,9.10
2017,02,15,05,12,9.10
2017,02,15,05,13,9.10
2017,02,15,05,14,9.10
2017,02,15,05,15,9.10
2017,02,15,05,16,9.10
2017,02,15,05,17,9.10
2017,02,15,05,18,9.10
2017,02,15,05,19,9.10
2017,02,15,05,20,9.10
2017,02,15,05,21,9.10
2017,02,15,05,22,9.10
2017,02,15,05,23,9.10
2017,02,15,05,24,9.10
2017,02,15,05,25,9.10
2017,02,15,05,26,9.10
2017,02,15,08,49,9.30
2017,02,15,08,50,9.30
2017,02,15,08,51,9.30
2017,02,15,08,52,9.30
2017,02,15,08,53,9.30
2017,02,15,08,54,9.30
2017,02,15,08,55,9.20
2017,02,15,08,56,9.20
2017,02,15,08,57,9.20
2017,02,15,08,58,9.20
2017,02,15,08,59,9.20
2017,02,15,09,00,9.20
2017,02,15,09,01,9.20
2017,02,15,09,02,9.20
2017,02,15,09,03,9.20
2017,02,15,09,04,9.20
2017,02,15,09,05,9.20
2017,02,15,09,06,9.20
2017,02,15,09,07,9.20
2017,02,15,09,08,9.10
2017,02,15,09,09,9.10
2017,02,15,09,10,9.10
2017,02,15,09,11,9.10
2017,02,15,09,12,9.10
2017,02,15,09,13,9.10
2017,02,15,09,14,9.10
2017,02,15,09,15,9.10
2017,02,15,09,16,9.10
2017,02,15,09,17,9.10
2017,02,15,09,18,9.10
2017,02,15,09,19,9.10
2017,02,15,09,20,9.10
2017,02,15,09,21,9.10
2017,02,15,09,22,9.10
2017,02,15,09,23,9.10
2017,02,15,09,24,9.10
2017,02,15,09,25,9.10
2017,02,15,09,26,9.10
2017,02,15,09,27,9.10
2017,02,15,09,28,9.10
2017,02,15,09,29,9.10
2017,02,15,09,30,9.10
2017,02,15,09,31,9.10
2017,02,15,09,32,9.10
2017,02,15,09,33,9.10
2017,02,15,09,34,9.10
2017,02,15,09,35,9.10
2017,02,15,09,36,9.00
2017,02,15,09,37,9.00
2017,02,15,09,38,9.00
2017,02,15,09,39,9.00
2017,02,15,09,40,8.90
2017,02,15,09,41,8.90
2017,02,15,09,42,9.00
2017,02,15,09,43,9.00
2017,02,15,09,44,9.00
2017,02,15,09,45,9.00
2017,02,15,09,46,9.00
2017,02,15,09,47,9.10
2017,02,15,09,48,9.10
2017,02,15,09,49,9.10
2017,02,15,09,50,9.10
2017,02,15,09,51,9.10
2017,02,15,09,52,9.20
2017,02,15,09,53,9.20
2017,02,15,09,54,9.20
2017,02,15,09,55,9.30
2017,02,15,09,56,9.30
2017,02,15,09,57,9.30
2017,02,15,09,58,9.30
2017,02,15,09,59,9.30
2017,02,15,10,00,9.30
2017,02,15,10,01,9.40
2017,02,15,10,02,9.40
2017,02,15,10,03,9.40
2017,02,15,10,04,9.40
2017,02,15,10,05,9.40
2017,02,15,10,06,9.40
2017,02,15,10,07,9.40
2017,02,15,10,08,9.40
2017,02,15,10,09,9.40
2017,02,15,10,10,9.50
2017,02,15,10,11,9.50
2017,02,15,10,12,9.50
2017,02,15,10,13,9.50
2017,02,15,10,14,9.50
2017,02,15,10,15,9.60
2017,02,15,10,16,9.60
2017,02,15,10,17,9.60
2017,02,15,10,18,9.60
2017,02,15,10,19,9.60
2017,02,15,10,20,9.60
2017,02,15,10,21,9.60
2017,02,15,10,22,9.60
2017,02,15,10,23,9.70
2017,02,15,10,24,9.70
2017,02,15,10,25,9.60
2017,02,15,10,26,9.60
2017,02,15,10,27,9.70
2017,02,15,10,28,9.70
2017,02,15,10,29,9.70
2017,02,15,10,30,9.70
2017,02,15,10,31,9.70
2017,02,15,10,32,9.70
2017,02,15,10,33,9.70
2017,02,15,10,34,9.70
2017,02,15,10,35,9.70
2017,02,15,10,36,9.70
2017,02,15,10,37,9.60
2017,02,15,10,38,9.60
2017,02,15,10,39,9.60
2017,02,15,10,40,9.60
2017,02,15,10,41,9.60
2017,02,15,10,42,9.70
2017,02,15,10,43,9.70
2017,02,15,10,44,9.70
2017,02,15,10,45,9.70
2017,02,15,10,46,9.70
2017,02,15,10,47,9.70
2017,02,15,10,48,9.70
2017,02,15,10,49,9.70
2017,02,15,10,50,9.70
2017,02,15,10,51,9.70
2017,02,15,10,52,9.70
2017,02,15,10,53,9.70
2017,02,15,10,54,9.70
2017,02,15,10,55,9.70
2017,02,15,10,56,9.70
2017,02,15,10,57,9.70
2017,02,15,10,58,9.70
2017,02,15,10,59,9.70
2017,02,15,11,00,9.70
2017,02,15,11,01,9.70
2017,02,15,11,02,9.70
2017,02,15,11,03,9.70
2017,02,15,11,04,9.70
2017,02,15,11,05,9.70
2017,02,15,11,06,9.70
2017,02,15,11,07,9.60
2017,02,15,11,08,9.60
2017,02,15,11,09,9.60
2017,02,15,11,10,9.60
2017,02,15,11,11,9.60
2017,02,15,11,12,9.60
2017,02,15,11,13,9.60
2017,02,15,11,14,9.60
2017,02,15,11,15,9.60
2017,02,15,11,16,9.60
2017,02,15,11,17,9.50
2017,02,15,11,18,9.50
2017,02,15,11,19,9.50
2017,02,15,11,20,9.50
2017,02,15,11,21,9.50
2017,02,15,11,22,9.50
2017,02,15,11,23,9.50
2017,02,15,11,24,9.50
2017,02,15,11,25,9.50
2017,02,15,11,26,9.40
2017,02,15,11,27,9.40
2017,02,15,11,28,9.50
2017,02,15,11,29,9.40
2017,02,15,11,30,9.50
2017,02,15,11,31,9.50
2017,02,15,11,32,9.50
2017,02,15,11,33,9.50
2017,02,15,11,34,9.50
2017,02,15,11,35,9.50
2017,02,15,11,36,9.50
2017,02,15,11,37,9.50
2017,02,15,11,38,9.50
2017,02,15,11,39,9.50
2017,02,15,11,40,9.50
2017,02,15,11,41,9.50
2017,02,15,11,42,9.50
2017,02,15,11,43,9.50
2017,02,15,11,44,9.50
2017,02,15,11,45,9.50
2017,02,15,11,46,9.40
2017,02,15,11,47,9.40
2017,02,15,11,48,9.40
2017,02,15,11,49,9.40
2017,02,15,11,50,9.40
2017,02,15,11,51,9.40
2017,02,15,11,52,9.40
2017,02,15,11,53,9.50
2017,02,15,11,54,9.50
2017,02,15,11,55,9.60
2017,02,15,11,56,9.60
2017,02,15,11,57,9.60
2017,02,15,11,58,9.60
2017,02,15,11,59,9.60
2017,02,15,12,00,9.70
2017,02,15,12,01,9.70
2017,02,15,12,02,9.70
2017,02,15,12,03,9.70
2017,02,15,12,04,9.70
2017,02,15,12,05,9.70
2017,02,15,12,06,9.70
2017,02,15,12,07,9.70
2017,02,15,12,08,9.70
2017,02,15,12,09,9.70
2017,02,15,12,10,9.70
2017,02,15,12,11,9.60
2017,02,15,12,12,9.60
2017,02,15,12,13,9.60
2017,02,15,12,14,9.60
2017,02,15,12,15,9.60
2017,02,15,12,16,9.60
2017,02,15,12,17,9.60
2017,02,15,12,18,9.60
2017,02,15,12,19,9.60
2017,02,15,12,20,9.60
2017,02,15,12,21,9.60
2017,02,15,12,22,9.60
2017,02,15,12,23,9.70
2017,02,15,12,24,9.70
2017,02,15,12,25,9.70
2017,02,15,12,26,9.70
2017,02,15,12,27,9.70
2017,02,15,12,28,9.70
2017,02,15,12,29,9.70
2017,02,15,12,30,9.70
2017,02,15,12,31,9.70
2017,02,15,12,32,9.70
2017,02,15,12,33,9.70
2017,02,15,12,34,9.70
2017,02,15,12,35,9.70
2017,02,15,12,36,9.70
2017,02,15,12,37,9.60
2017,02,15,12,38,9.60
2017,02,15,12,39,9.60
2017,02,15,12,40,9.50
2017,02,15,12,41,9.50
2017,02,15,12,42,9.50
2017,02,15,12,43,9.50
2017,02,15,12,44,9.40
2017,02,15,12,45,9.50
2017,02,15,12,46,9.50
2017,02,15,12,47,9.50
2017,02,15,12,48,9.50
2017,02,15,12,49,9.50
2017,02,15,12,50,9.60
2017,02,15,12,51,9.60
2017,02,15,12,52,9.60
2017,02,15,12,53,9.60
2017,02,15,12,54,9.60
2017,02,15,12,55,9.60
2017,02,15,12,56,9.60
2017,02,15,12,57,9.60
2017,02,15,12,58,9.50
2017,02,15,12,59,9.50
2017,02,15,13,00,9.50
2017,02,15,13,01,9.50
2017,02,15,13,02,9.50
2017,02,15,13,03,9.50
2017,02,15,13,04,9.40
2017,02,15,13,05,9.40
2017,02,15,13,06,9.40
2017,02,15,13,07,9.40
2017,02,15,13,08,9.40
2017,02,15,13,09,9.40
2017,02,15,13,10,9.40
2017,02,15,13,11,9.40
2017,02,15,13,12,9.40
2017,02,15,13,13,9.40
2017,02,15,13,14,9.30
2017,02,15,13,15,9.30
2017,02,15,13,16,9.30
2017,02,15,13,17,9.30
2017,02,15,13,18,9.30
2017,02,15,13,19,9.30
2017,02,15,13,20,9.30
2017,02,15,13,21,9.30
2017,02,15,13,22,9.30
2017,02,15,13,23,9.30
2017,02,15,13,24,9.30
2017,02,15,13,25,9.30
2017,02,15,13,26,9.30
2017,02,15,13,27,9.30
2017,02,15,13,28,9.30
2017,02,15,13,29,9.30
2017,02,15,13,30,9.30
2017,02,15,13,31,9.30
2017,02,15,13,32,9.30
2017,02,15,13,33,9.30
2017,02,15,13,34,9.30
2017,02,15,13,35,9.30
2017,02,15,13,36,9.30
2017,02,15,13,37,9.30
2017,02,15,13,38,9.30
2017,02,15,13,39,9.30
2017,02,15,13,40,9.30
2017,02,15,13,41,9.30
2017,02,15,13,42,9.30
2017,02,15,13,43,9.30
2017,02,15,13,44,9.30
2017,02,15,13,45,9.30
2017,02,15,13,46,9.30
2017,02,15,13,47,9.30
2017,02,15,13,48,9.30
2017,02,15,13,49,9.30
2017,02,15,13,50,9.30
2017,02,15,13,51,9.30
2017,02,15,13,52,9.30
2017,02,15,13,53,9.30
2017,02,15,13,54,9.30
2017,02,15,13,55,9.30
2017,02,15,13,56,9.30
2017,02,15,13,57,9.30
2017,02,15,13,58,9.30
2017,02,15,13,59,9.30
2017,02,15,14,00,9.30
2017,02,15,14,01,9.30
2017,02,15,14,02,9.30
2017,02,15,14,03,9.30
2017,02,15,14,04,9.30
2017,02,15,14,05,9.30
2017,02,15,14,06,9.30
2017,02,15,14,07,9.30
2017,02,15,14,08,9.30
2017,02,15,14,09,9.30
2017,02,15,14,10,9.30
2017,02,15,14,11,9.30
2017,02,15,14,12,9.30
2017,02,15,14,13,9.30
2017,02,15,14,14,9.30
2017,02,15,14,15,9.30
2017,02,15,14,16,9.20
2017,02,15,14,17,9.20
2017,02,15,14,18,9.30
2017,02,15,14,19,9.30
2017,02,15,14,20,9.30
2017,02,15,14,21,9.30
2017,02,15,14,22,9.30
2017,02,15,14,23,9.30
2017,02,15,14,24,9.30
2017,02,15,14,25,9.30
2017,02,15,14,26,9.30
2017,02,15,14,27,9.30
2017,02,15,14,28,9.30
2017,02,15,14,29,9.30
2017,02,15,14,30,9.30
2017,02,15,14,31,9.30
2017,02,15,14,32,9.40
2017,02,15,14,33,9.40
2017,02,15,14,34,9.40
2017,02,15,14,35,9.30
2017,02,15,14,36,9.30
2017,02,15,14,37,9.30
2017,02,15,14,38,9.30
2017,02,15,14,39,9.30
2017,02,15,14,40,9.30
2017,02,15,14,41,9.30
2017,02,15,14,42,9.30
2017,02,15,14,43,9.30
2017,02,15,14,44,9.30
2017,02,15,14,45,9.30
2017,02,15,14,46,9.30
2017,02,15,14,47,9.30
2017,02,15,14,48,9.30
2017,02,15,14,49,9.30
2017,02,15,14,50,9.40
2017,02,15,14,51,9.40
2017,02,15,14,52,9.40
2017,02,15,14,53,9.50
2017,02,15,14,54,9.50
2017,02,15,14,55,9.60
2017,02,15,14,56,9.60
2017,02,15,14,57,9.60
2017,02,15,14,58,9.70
2017,02,15,14,59,9.70
2017,02,15,15,00,9.70
2017,02,15,15,01,9.80
2017,02,15,15,02,9.80
2017,02,15,15,03,9.80
2017,02,15,15,04,9.90
2017,02,15,15,05,9.90
2017,02,15,15,06,9.90
2017,02,15,15,07,9.90
2017,02,15,15,08,9.90
2017,02,15,15,09,9.90
2017,02,15,15,10,9.90
2017,02,15,15,11,9.90
2017,02,15,15,12,9.90
2017,02,15,15,13,9.90
2017,02,15,15,14,9.90
2017,02,15,15,15,9.90
2017,02,15,15,16,9.90
2017,02,15,15,17,9.90
2017,02,15,15,18,9.90
2017,02,15,15,19,9.90
2017,02,15,15,20,9.90
2017,02,15,15,21,9.90
2017,02,15,15,22,9.80
2017,02,15,15,23,9.80
2017,02,15,15,24,9.80
2017,02,15,15,25,9.80
2017,02,15,15,26,9.80
2017,02,15,15,27,9.70
2017,02,15,15,28,9.70
2017,02,15,15,29,9.70
2017,02,15,15,30,9.70
2017,02,15,15,31,9.70
2017,02,15,15,32,9.70
2017,02,15,15,33,9.70
2017,02,15,15,34,9.70
2017,02,15,15,35,9.70
2017,02,15,15,36,9.80
2017,02,15,15,37,9.80
2017,02,15,15,38,9.80
2017,02,15,15,39,9.80
2017,02,15,15,40,9.80
2017,02,15,15,41,9.80
2017,02,15,15,42,9.80
2017,02,15,15,43,9.80
2017,02,15,15,44,9.80
2017,02,15,15,45,9.80
2017,02,15,15,46,9.80
2017,02,15,15,47,9.80
2017,02,15,15,48,9.80
2017,02,15,15,49,9.80
2017,02,15,15,50,9.80
2017,02,15,15,51,9.80
2017,02,15,15,52,9.80
2017,02,15,15,53,9.80
2017,02,15,15,54,9.90
2017,02,15,15,55,9.90
2017,02,15,15,56,9.90
2017,02,15,15,57,9.90
2017,02,15,15,58,10.00
2017,02,15,15,59,10.00
2017,02,15,16,00,10.10
2017,02,15,16,01,10.10
2017,02,15,16,02,10.10
2017,02,15,16,03,10.10
2017,02,15,16,04,10.10
2017,02,15,16,05,10.10
2017,02,15,16,06,10.10
2017,02,15,16,07,10.10
2017,02,15,16,08,10.10
2017,02,15,16,09,10.10
2017,02,15,16,10,10.10
2017,02,15,16,11,10.10
2017,02,15,16,12,10.10
2017,02,15,16,13,10.10
2017,02,15,16,14,10.10
2017,02,15,16,15,10.10
2017,02,15,16,16,10.10
2017,02,15,16,17,10.10
2017,02,15,16,18,10.00
2017,02,15,16,19,10.00
2017,02,15,16,20,10.00
2017,02,15,16,21,9.90
2017,02,15,16,22,9.90
2017,02,15,16,23,9.90
2017,02,15,16,24,9.90
2017,02,15,16,25,9.90
2017,02,15,16,26,9.90
2017,02,15,16,27,9.80
2017,02,15,16,28,9.80
2017,02,15,16,29,9.80
2017,02,15,16,30,9.80
2017,02,15,16,31,9.80
2017,02,15,16,32,9.80
2017,02,15,16,33,9.80
2017,02,15,16,34,9.90
2017,02,15,16,35,9.90
2017,02,15,16,36,9.90
2017,02,15,16,37,9.90
2017,02,15,16,38,9.90
2017,02,15,16,39,9.90
2017,02,15,16,40,9.90
2017,02,15,16,41,9.90
2017,02,15,16,42,9.90
2017,02,15,16,43,9.90
2017,02,15,16,44,10.00
2017,02,15,16,45,10.00
2017,02,15,16,46,10.00
2017,02,15,16,47,10.00
2017,02,15,16,48,10.00
2017,02,15,16,49,10.10
2017,02,15,16,50,10.10
2017,02,15,16,51,10.10
2017,02,15,16,52,10.10
2017,02,15,16,53,10.10
2017,02,15,16,54,10.10
2017,02,15,16,55,10.10
2017,02,15,16,56,10.10
2017,02,15,16,57,10.10
2017,02,15,16,58,10.00
2017,02,15,16,59,10.00
2017,02,15,17,00,10.00
2017,02,15,17,01,10.00
2017,02,15,17,02,10.00
2017,02,15,17,03,10.00
2017,02,15,17,04,10.00
2017,02,15,17,05,10.00
2017,02,15,17,06,10.00
2017,02,15,17,07,10.00
2017,02,15,17,08,10.10
2017,02,15,17,09,10.10
2017,02,15,17,10,10.10
2017,02,15,17,11,10.10
2017,02,15,17,12,10.10
2017,02,15,17,13,10.10
2017,02,15,17,14,10.10
2017,02,15,17,15,10.10
2017,02,15,17,16,10.10
2017,02,15,17,17,10.10
2017,02,15,17,18,10.10
2017,02,15,17,19,10.10
2017,02,15,17,20,10.00
2017,02,15,17,21,10.00
2017,02,15,17,22,10.10
2017,02,15,17,23,10.10
2017,02,15,17,24,10.10
2017,02,15,17,25,10.20
2017,02,15,17,26,10.20
2017,02,15,17,27,10.30
2017,02,15,17,28,10.40
2017,02,15,17,29,10.40
2017,02,15,17,30,10.50
2017,02,15,17,31,10.60
2017,02,15,17,32,10.70
2017,02,15,17,33,10.70
2017,02,15,17,34,10.70
2017,02,15,17,35,10.80
2017,02,15,17,36,10.80
2017,02,15,17,37,10.80
2017,02,15,17,38,10.90
2017,02,15,17,39,10.90
2017,02,15,17,40,10.90
2017,02,15,17,41,11.00
2017,02,15,17,42,11.00
2017,02,15,17,43,11.00
2017,02,15,17,44,11.00
2017,02,15,17,45,11.00
2017,02,15,17,46,11.00
2017,02,15,17,47,11.00
2017,02,15,17,48,11.00
2017,02,15,17,49,11.10
2017,02,15,17,50,11.10
2017,02,15,17,51,11.10
2017,02,15,17,52,11.10
2017,02,15,17,53,11.10
2017,02,15,17,54,11.10
2017,02,15,17,55,11.10
2017,02,15,17,56,11.10
2017,02,15,17,57,11.20
2017,02,15,17,58,11.20
2017,02,15,17,59,11.20
2017,02,15,18,00,11.20
2017,02,15,18,01,11.20
2017,02,15,18,02,11.20
2017,02,15,18,03,11.20
2017,02,15,18,04,11.20
2017,02,15,18,05,11.30
2017,02,15,18,06,11.30
2017,02,15,18,07,11.30
2017,02,15,18,08,11.30
2017,02,15,18,09,11.30
2017,02,15,18,10,11.30
2017,02,15,18,11,11.30
2017,02,15,18,12,11.30
2017,02,15,18,13,11.30
2017,02,15,18,14,11.40
2017,02,15,18,15,11.40
2017,02,15,18,16,11.40
2017,02,15,18,17,11.40
2017,02,15,18,18,11.40
2017,02,15,18,19,11.40
2017,02,15,18,20,11.40
2017,02,15,18,21,11.40
2017,02,15,18,22,11.40
2017,02,15,18,23,11.40
2017,02,15,18,24,11.40
2017,02,15,18,25,11.40
2017,02,15,18,26,11.40
2017,02,15,18,27,11.40
2017,02,15,18,28,11.40
2017,02,15,18,29,11.40
2017,02,15,18,30,11.40
2017,02,15,18,31,11.40
2017,02,15,18,32,11.40
2017,02,15,18,33,11.40
2017,02,15,18,34,11.40
2017,02,15,18,35,11.40
2017,02,15,18,36,11.40
2017,02,15,18,37,11.40
2017,02,15,18,38,11.40
2017,02,15,18,39,11.40
2017,02,15,18,40,11.40
2017,02,15,18,41,11.40
2017,02,15,18,42,11.40
2017,02,15,18,43,11.40
2017,02,15,18,44,11.40
2017,02,15,18,45,11.40
2017,02,15,18,46,11.40
2017,02,15,18,47,11.40
2017,02,15,18,48,11.40
2017,02,15,18,49,11.40
2017,02,15,18,50,11.30
2017,02,15,18,51,11.30
2017,02,15,18,52,11.30
2017,02,15,18,53,11.30
2017,02,15,18,54,11.30
2017,02,15,18,55,11.30
2017,02,15,18,56,11.30
2017,02,15,18,57,11.30
2017,02,15,18,58,11.30
2017,02,15,18,59,11.30
2017,02,15,19,00,11.30
2017,02,15,19,01,11.30
2017,02,15,19,02,11.30
2017,02,15,19,03,11.30
2017,02,15,19,04,11.30
2017,02,15,19,05,11.30
2017,02,15,19,06,11.30
2017,02,15,19,07,11.30
2017,02,15,19,08,11.20
2017,02,15,19,09,11.20
2017,02,15,19,10,11.20
2017,02,15,19,11,11.20
2017,02,15,19,12,11.20
2017,02,15,19,13,11.30
2017,02,15,19,14,11.30
2017,02,15,19,15,11.20
2017,02,15,19,16,11.20
2017,02,15,19,17,11.20
2017,02,15,19,18,11.20
2017,02,15,19,19,11.20
2017,02,15,19,20,11.20
2017,02,15,19,21,11.20
2017,02,15,19,22,11.20
2017,02,15,19,23,11.20
2017,02,15,19,24,11.20
2017,02,15,19,25,11.20
2017,02,15,19,26,11.20
2017,02,15,19,27,11.20
2017,02,15,19,28,11.20
2017,02,15,19,29,11.20
2017,02,15,19,30,11.20
2017,02,15,19,31,11.20
2017,02,15,19,32,11.20
2017,02,15,19,33,11.20
2017,02,15,19,34,11.20
2017,02,15,19,35,11.20
2017,02,15,19,36,11.20
2017,02,15,19,37,11.20
2017,02,15,19,38,11.20
2017,02,15,19,39,11.20
2017,02,15,19,40,11.20
2017,02,15,19,41,11.20
2017,02,15,19,42,11.20
2017,02,15,19,43,11.30
2017,02,15,19,44,11.30
2017,02,15,19,45,11.20
2017,02,15,19,46,11.20
2017,02,15,19,47,11.20
2017,02,15,19,48,11.20
2017,02,15,19,49,11.20
2017,02,15,19,50,11.20
2017,02,15,19,51,11.20
2017,02,15,19,52,11.20
2017,02,15,19,53,11.20
2017,02,15,19,54,11.20
2017,02,15,19,55,11.20
2017,02,15,19,56,11.20
2017,02,15,19,57,11.10
2017,02,15,19,58,11.10
2017,02,15,19,59,11.10
2017,02,15,20,00,11.10
2017,02,15,20,01,11.10
2017,02,15,20,02,11.10
2017,02,15,20,03,11.10
2017,02,15,20,04,11.00
2017,02,15,20,05,11.10
2017,02,15,20,06,11.10
2017,02,15,20,07,11.00
2017,02,15,20,08,11.00
2017,02,15,20,09,11.00
2017,02,15,20,10,11.00
2017,02,15,20,11,11.00
2017,02,15,20,12,11.00
2017,02,15,20,13,11.00
2017,02,15,20,14,11.00
2017,02,15,20,15,11.00
2017,02,15,20,16,11.00
2017,02,15,20,17,11.00
2017,02,15,20,18,11.00
2017,02,15,20,19,11.00
2017,02,15,20,20,11.00
2017,02,15,20,21,11.00
2017,02,15,20,22,11.00
2017,02,15,20,23,11.00
2017,02,15,20,24,11.00
2017,02,15,20,25,11.00
2017,02,15,20,26,11.00
2017,02,15,20,27,11.00
2017,02,15,20,28,11.00
2017,02,15,20,29,11.00
2017,02,15,20,30,11.00
2017,02,15,20,31,11.00
2017,02,15,20,32,10.90
2017,02,15,20,33,11.00
2017,02,15,20,34,11.00
2017,02,15,20,35,11.00
2017,02,15,20,36,11.00
2017,02,15,20,37,11.00
2017,02,15,20,38,10.90
2017,02,15,20,39,10.90
2017,02,15,20,40,10.90
2017,02,15,20,41,10.90
2017,02,15,20,42,10.90
2017,02,15,20,43,10.90
2017,02,15,20,44,10.90
2017,02,15,20,45,10.90
2017,02,15,20,46,10.90
2017,02,15,20,47,10.90
2017,02,15,20,48,10.90
2017,02,15,20,49,10.90
2017,02,15,20,50,10.90
2017,02,15,20,51,10.90
2017,02,15,20,52,10.90
2017,02,15,20,53,10.90
2017,02,15,20,54,10.90
2017,02,15,20,55,10.90
2017,02,15,20,56,10.90
2017,02,15,20,57,10.90
2017,02,15,20,58,10.90
2017,02,15,20,59,10.90
2017,02,15,21,00,10.90
2017,02,15,21,01,10.90
2017,02,15,21,02,10.90
2017,02,15,21,03,10.90
2017,02,15,21,04,10.90
2017,02,15,21,05,10.90
2017,02,15,21,06,10.90
2017,02,15,21,07,10.90
2017,02,15,21,08,10.90
2017,02,15,21,09,10.90
2017,02,15,21,10,10.90
2017,02,15,21,11,10.80
2017,02,15,21,12,10.80
2017,02,15,21,13,10.80
2017,02,15,21,14,10.80
2017,02,15,21,15,10.80